Tracking 19570 objects as of 21-Feb-2019
HD Live streaming from Space Station
objects crossing your sky now

COSMOS 1823 DEB

Track COSMOS 1823 DEB now!
10-day predictions


NORAD ID: 39834
Int'l Code: 1987-020FJ
Perigee: 1,484.8 km
Apogee: 1,560.1 km
Inclination: 73.6 °
Period: 116.3 minutes
Semi major axis: 7893 km
RCS: Unknown
Launch date: February 20, 1987
Source: Commonwealth of Independent States (former USSR) (CIS)
Launch site: PLESETSK MISSILE AND SPACE COMPLEX (PKMTR)

Note: This is SATELLITE DEBRIS
aabbcc
Your satellite tracking list
Your tracking list is empty




NASA's NSSDC Master Catalog

Two Line Element Set (TLE):
1 39834U 87020FJ  19049.62264643 -.00000002  00000-0  12043-3 0  9996
2 39834  73.5986 125.5086 0047725 222.8339 136.8980 12.37952913454873
Source of the keplerian elements: AFSPC